Theta_e
329 331 331 331 332 330 329 330 328 329 330 328 327 326 332 340 329 326 341 349 337 334 337 335 338 344 344 342 337 335 336 335 334 335 336 338 339 346 356 358 355 353 353 353 352 351 350 350 347 347 348 346 345 345 343 341 340 340 339 336 337 336 334 334 333 333 334 336 337 336 335 334 332 331 330 331 331 329 329 329 329 330 330 330 329 330 329
327 329 329 331 331 329 329 330 330 330 331 328 328 329 330 334 334 334 345 348 341 336 336 335 337 337 337 335 335 335 335 335 336 335 334 336 337 341 351 355 354 353 352 352 352 350 349 347 346 348 348 348 347 344 342 340 339 338 336 335 337 336 331 329 329 328 330 333 335 336 335 333 332 330 329 331 333 333 333 332 330 329 329 329 330 330 329
325 330 330 329 330 329 328 330 331 331 331 329 329 330 329 332 333 333 341 344 342 338 338 339 336 335 337 337 336 336 336 335 336 335 333 334 333 336 345 350 350 351 351 350 351 352 350 348 348 349 349 348 346 343 341 340 338 335 335 336 338 336 331 329 330 329 330 333 335 335 333 331 330 328 327 331 333 334 334 333 332 331 330 329 329 329 328
320 327 329 328 329 329 325 325 328 329 329 328 329 331 331 331 333 336 334 333 336 339 339 337 336 336 337 338 337 338 337 335 335 336 337 336 334 335 340 346 349 352 352 350 350 351 351 349 348 349 349 348 345 343 342 339 337 336 336 338 339 336 331 328 331 332 334 335 336 335 334 331 329 328 329 331 333 334 335 334 333 332 330 329 328 328 328
320 326 329 327 328 325 322 323 328 330 330 331 331 331 333 334 336 335 331 330 338 342 339 335 336 338 338 338 338 336 335 337 337 337 338 337 337 338 340 343 348 354 356 353 352 353 351 350 350 351 350 348 344 344 342 338 336 337 338 339 340 337 331 326 329 332 334 336 336 335 334 332 330 331 332 333 334 335 335 335 334 332 329 328 328 328 328
320 326 328 327 325 321 323 329 332 332 331 331 330 331 333 335 337 337 334 335 340 340 337 335 336 336 337 337 334 334 335 336 336 337 337 336 337 339 340 340 344 351 355 355 354 355 353 352 353 352 351 348 345 344 341 337 337 338 339 338 339 338 332 327 329 333 334 335 335 334 333 332 332 332 332 333 334 334 335 335 333 331 329 328 328 328 328
323 325 327 325 322 324 330 333 333 332 332 332 332 333 333 335 337 340 337 336 338 338 336 337 336 334 335 334 332 333 334 334 335 335 335 337 337 336 339 339 338 346 355 356 356 356 356 355 353 351 350 350 347 342 339 339 338 338 337 337 338 340 336 333 335 337 335 335 334 333 333 332 332 332 333 334 334 334 335 335 333 330 328 328 328 328 327
324 323 323 322 326 331 332 334 334 332 333 333 332 331 334 335 337 337 337 335 335 336 336 334 334 334 334 333 334 334 333 333 334 333 333 336 337 337 340 341 339 343 353 357 357 358 359 356 353 351 351 349 343 338 339 341 338 336 336 337 339 340 339 338 339 339 337 334 333 333 332 332 332 333 334 335 335 334 334 335 334 330 328 328 328 328 327
326 321 320 324 330 332 331 333 334 334 335 335 333 331 333 337 336 334 336 337 335 335 334 335 335 334 333 335 334 333 332 332 331 332 334 335 336 337 341 344 345 345 352 357 359 358 359 356 353 352 349 343 340 339 340 340 336 336 337 339 340 340 339 339 340 339 336 335 333 333 333 333 333 334 334 334 334 333 334 334 333 330 329 329 328 328 327
328 323 320 324 325 325 329 334 336 336 335 335 336 333 332 337 336 332 335 339 337 335 335 334 334 334 333 335 334 333 333 333 332 335 336 335 335 337 342 346 349 350 354 359 359 359 359 356 353 351 345 341 341 340 338 338 337 338 339 338 337 337 337 337 338 337 336 334 333 333 332 333 333 334 333 332 332 332 333 332 332 330 329 328 328 328 328
327 324 322 322 322 324 333 338 336 334 334 334 335 331 328 333 336 333 333 337 337 336 334 333 335 335 333 333 334 333 333 334 335 336 337 336 336 340 345 347 351 354 357 359 358 359 358 354 352 347 341 340 341 338 336 337 339 340 340 337 336 334 334 334 335 336 335 333 332 332 332 333 334 333 332 331 332 332 330 330 331 331 330 329 328 328 327
326 325 323 323 324 329 336 336 333 333 335 337 334 327 327 337 338 334 333 335 335 335 333 334 335 335 334 334 334 332 331 333 333 335 338 338 338 341 344 347 351 355 357 358 358 358 356 352 349 344 340 340 341 337 335 337 338 339 339 338 337 336 335 334 335 336 335 332 331 331 331 332 334 333 331 330 331 331 329 330 331 330 329 327 326 326 326
324 324 322 322 327 335 337 333 333 334 332 332 330 327 334 341 337 333 333 333 334 334 333 334 334 334 334 333 332 333 332 332 331 334 337 338 338 338 338 342 350 355 356 358 358 356 353 349 345 342 341 340 339 336 336 337 336 336 337 337 337 336 335 335 334 335 335 334 332 331 331 333 334 333 331 330 330 329 329 331 331 328 327 326 326 327 327
324 324 323 322 327 336 337 331 332 334 331 330 330 333 337 338 334 333 333 333 333 333 333 333 333 332 332 332 333 333 332 332 334 336 336 337 336 335 335 340 349 356 357 357 355 353 349 346 343 341 340 338 337 337 336 335 334 334 334 334 334 333 333 333 332 334 334 333 332 331 332 334 333 331 329 330 331 331 330 330 329 327 326 327 328 330 329
325 324 323 322 327 335 336 333 337 339 338 337 338 337 335 334 334 334 333 332 333 333 332 333 333 333 333 333 334 332 330 335 339 338 337 338 337 337 342 347 353 357 356 352 349 348 345 344 342 340 338 337 336 336 335 336 337 336 335 334 333 332 331 331 331 332 334 333 332 332 333 334 333 330 329 330 332 332 330 329 327 326 326 327 329 330 329
328 325 325 328 332 336 334 335 338 339 340 340 339 337 335 335 334 334 333 334 333 332 333 333 332 333 334 334 335 333 331 336 341 339 338 339 338 341 348 352 354 355 352 347 343 342 341 341 340 337 336 336 335 334 336 338 337 337 336 336 335 334 333 332 332 331 332 332 333 333 334 334 332 330 330 330 330 330 330 328 328 327 328 329 329 329 328
333 332 334 335 336 336 334 336 337 336 336 336 335 335 336 336 336 335 333 334 334 334 334 334 334 335 335 334 336 334 332 333 338 339 337 335 334 338 346 350 349 348 347 345 340 340 342 340 338 337 336 335 334 335 339 340 339 338 337 335 334 333 331 332 333 333 333 334 334 334 334 332 330 329 328 328 328 328 329 329 327 327 327 328 328 328 328
336 337 338 335 335 335 334 333 334 333 334 334 335 336 337 336 335 334 333 334 336 335 335 335 335 335 335 334 334 333 332 334 338 340 339 335 333 336 342 346 344 341 342 342 339 340 343 342 340 340 338 335 335 336 338 339 338 336 334 332 331 329 329 332 334 335 335 335 334 333 331 330 329 329 328 327 327 327 328 327 326 327 328 328 328 329 327
335 337 338 335 334 335 334 333 332 332 333 333 334 335 335 334 333 333 333 334 335 335 334 333 334 332 332 332 332 333 336 339 340 341 340 338 337 338 340 341 339 338 340 339 337 338 341 342 342 341 337 336 335 334 333 333 332 332 332 331 330 329 329 332 334 336 335 334 333 331 329 328 329 328 328 327 327 327 327 326 325 326 326 327 328 328 326
335 337 337 333 331 333 333 332 332 332 331 332 333 332 332 332 332 333 334 333 332 332 331 332 333 333 333 335 336 339 340 341 341 340 340 341 342 341 340 338 336 337 339 339 337 338 339 339 339 337 335 335 333 330 329 330 331 333 335 335 336 336 335 334 334 335 334 333 332 329 327 326 327 327 327 328 328 327 326 325 324 323 321 323 324 324 324
337 336 337 335 335 335 333 331 331 332 332 332 332 331 330 331 331 332 332 332 333 333 333 335 338 337 337 338 340 342 342 342 342 341 341 343 344 343 342 340 338 338 338 336 336 338 338 339 338 335 333 333 330 328 329 331 331 333 336 337 338 338 336 335 335 335 334 332 330 329 328 327 327 328 328 327 327 326 324 324 323 322 322 322 322 321 322
336 335 334 335 338 338 334 330 330 331 331 332 332 330 330 331 330 330 331 332 334 335 336 339 340 339 338 337 338 341 342 341 340 340 340 341 342 341 339 338 337 339 338 337 338 339 338 337 334 331 329 328 326 327 330 332 333 335 337 337 336 334 334 334 333 334 332 331 329 329 329 328 328 328 328 327 326 325 325 325 324 324 323 322 320 320 321
332 330 329 331 334 334 332 329 329 330 331 332 331 329 330 330 329 330 330 331 333 336 338 340 339 338 338 337 337 342 342 339 340 342 340 339 340 339 337 334 334 336 337 336 336 334 332 331 329 328 329 330 330 329 331 331 331 331 334 335 335 333 332 331 330 330 330 330 330 329 328 327 327 327 326 326 326 326 327 326 326 324 322 320 319 320 321
327 325 326 327 328 328 328 328 328 329 329 331 330 329 330 329 329 329 328 328 331 333 335 338 338 336 337 337 337 340 339 338 339 342 341 339 340 338 334 331 330 330 329 329 329 328 327 327 328 328 330 331 330 330 331 331 330 329 329 331 333 333 332 330 329 329 330 330 330 329 327 327 327 327 327 327 327 327 327 326 325 324 322 320 321 321 321
323 323 323 323 323 325 325 325 326 327 327 329 329 328 328 327 327 327 327 327 328 329 330 334 336 335 337 336 337 338 339 339 338 338 337 337 336 332 330 330 330 328 326 326 327 325 324 325 326 325 327 329 328 328 328 329 330 330 329 329 332 333 333 331 330 330 330 330 330 328 328 327 327 328 328 328 327 327 327 326 324 323 321 321 321 321 320
322 321 321 321 322 322 323 324 325 326 327 326 326 326 326 326 325 325 325 326 326 326 326 329 332 334 335 336 335 336 337 338 338 336 335 335 331 329 330 332 330 327 326 326 325 325 327 328 326 324 326 328 328 326 326 327 327 327 327 328 331 333 332 331 329 328 329 329 329 328 328 328 327 328 328 327 327 327 326 325 324 322 322 321 321 320 319
320 318 318 319 320 322 324 325 325 324 324 324 324 324 324 324 324 324 325 325 325 325 325 326 330 333 334 334 334 334 335 336 336 336 336 333 330 330 332 334 333 330 328 327 326 327 328 327 323 323 327 329 325 322 323 325 324 322 322 326 329 330 330 329 328 327 327 327 328 328 328 328 328 328 327 327 327 325 325 324 324 323 322 321 320 319 317
317 318 319 321 322 323 323 322 322 322 322 322 322 323 323 323 323 323 324 324 324 324 325 326 328 331 332 332 333 334 336 336 336 336 334 332 329 329 331 334 334 333 332 330 327 325 324 323 324 328 330 327 323 323 325 326 325 324 324 327 329 329 328 328 328 327 326 326 327 328 328 328 327 326 326 326 324 324 324 324 323 323 322 321 319 318 317
318 320 322 322 322 321 321 320 321 321 322 322 323 324 324 324 324 323 323 323 323 323 324 326 327 328 330 331 332 333 334 335 335 335 335 333 329 329 332 334 333 334 336 333 326 323 324 325 327 330 329 324 324 327 328 328 328 328 329 329 329 329 329 329 329 328 327 327 327 328 328 327 326 325 324 324 323 323 324 323 322 322 321 320 318 317 316
321 322 322 321 320 320 320 321 321 322 324 324 325 324 325 324 324 324 324 324 324 324 324 326 328 329 329 330 332 333 334 333 334 334 334 332 329 330 334 334 333 335 337 333 328 327 329 328 329 330 328 326 327 330 329 329 329 329 329 329 329 328 328 329 328 327 327 328 328 328 327 326 325 324 324 323 322 322 322 321 321 320 319 318 317 316 315
321 322 321 320 320 320 321 322 323 325 325 325 324 323 323 323 324 324 323 323 324 323 323 324 325 328 329 329 330 331 333 333 334 334 332 331 331 333 334 333 333 334 335 333 331 332 332 330 330 331 328 325 326 328 328 329 329 329 329 329 328 326 326 327 327 326 327 326 326 326 326 325 324 324 322 321 320 320 319 319 317 317 316 315 314 314 314
322 322 321 321 322 322 323 324 325 325 324 324 323 323 323 323 323 323 322 323 323 323 323 323 323 326 330 331 330 331 332 332 333 331 330 331 333 333 332 332 332 334 334 333 334 334 332 331 332 330 325 322 324 326 327 327 328 328 328 328 327 326 326 326 326 326 326 326 326 326 325 324 324 323 321 319 319 318 317 316 315 314 315 314 313 313 313
323 323 322 322 323 323 323 323 323 323 323 323 323 323 324 323 323 323 323 324 325 324 325 324 323 327 333 334 332 331 330 330 329 328 329 332 334 334 332 332 333 333 334 334 334 333 332 332 331 329 325 323 324 326 327 327 328 328 327 327 326 326 325 325 325 325 326 326 325 325 324 323 323 322 320 319 318 317 316 316 315 315 314 314 313 313 313
323 322 321 321 321 321 322 321 321 321 321 322 323 324 323 323 323 323 324 324 325 325 326 326 325 329 334 336 334 332 330 328 327 326 328 330 331 332 332 333 334 333 333 333 332 331 331 331 329 327 327 326 326 326 327 326 326 326 327 326 326 325 325 325 324 324 324 325 324 324 324 323 322 321 320 319 318 316 316 317 316 315 314 313 313 313 312
321 320 320 320 320 319 319 319 319 319 319 320 322 323 323 323 323 323 323 324 324 325 326 326 325 329 334 334 333 333 332 331 329 329 330 330 330 331 333 334 334 333 332 331 330 330 329 328 327 327 327 327 326 326 326 326 325 325 326 326 326 326 325 324 323 323 323 324 323 323 322 321 321 320 320 318 317 316 315 316 316 315 314 313 312 312 310
320 320 320 320 320 319 319 318 318 318 318 319 320 321 322 323 322 322 322 323 323 324 325 325 327 331 334 335 334 334 333 332 332 332 331 331 331 332 333 333 331 330 329 329 328 328 327 326 326 326 326 326 325 325 325 325 325 325 325 324 324 324 323 322 322 322 323 323 322 322 321 321 320 320 318 317 316 316 316 315 315 314 313 313 312 311 310
320 319 320 320 320 320 320 320 320 319 319 319 320 321 322 323 323 322 322 322 323 324 325 325 327 330 332 333 334 334 332 331 331 329 328 328 330 331 331 331 330 329 328 327 326 326 326 325 324 324 324 324 324 324 324 324 324 323 323 322 322 322 321 321 321 321 321 320 320 320 319 318 318 318 317 316 315 316 316 315 314 314 313 312 311 309 308
319 319 319 320 320 320 320 321 321 321 321 321 321 322 322 323 323 322 322 323 323 324 325 326 328 329 331 331 333 333 332 331 331 330 329 330 330 329 329 330 329 328 328 327 326 325 325 324 322 323 324 324 323 323 323 323 322 322 322 322 322 321 320 320 320 320 319 319 318 318 317 317 316 316 316 316 315 314 314 313 313 312 312 311 310 308 308
319 319 319 319 319 319 319 320 320 320 321 321 321 322 323 323 324 324 323 323 323 324 325 327 328 329 331 332 333 333 332 331 331 330 329 328 327 326 327 327 327 326 326 326 325 324 324 322 322 322 323 322 322 322 321 320 320 320 320 320 320 319 319 318 318 318 318 318 317 317 317 316 316 315 315 315 314 313 312 312 312 311 310 310 309 308 307
319 319 319 319 319 319 319 319 319 320 321 322 322 323 323 324 324 325 325 325 326 326 327 328 329 330 331 332 331 329 329 329 328 328 328 327 326 326 326 325 325 325 324 324 324 323 321 321 321 321 321 321 320 320 319 318 319 319 318 318 318 318 317 317 317 317 316 316 316 316 315 315 314 314 313 313 313 312 311 311 310 310 309 309 309 308 306
319 319 319 319 319 320 320 320 321 321 322 322 322 323 324 324 326 326 326 327 330 330 329 330 330 330 330 330 328 328 327 327 327 327 326 324 323 324 324 324 323 322 321 322 322 321 319 320 321 320 319 319 319 318 318 317 317 317 317 317 317 316 316 316 315 315 315 315 314 314 314 313 313 313 312 312 311 312 311 310 309 308 308 308 308 307 306
319 319 319 319 320 320 320 320 321 321 321 322 322 322 322 323 324 325 326 328 330 331 330 330 330 330 329 328 327 326 326 325 324 325 324 322 322 323 323 323 322 320 320 321 321 319 318 319 319 318 318 318 318 317 316 316 316 316 316 316 315 315 315 315 315 314 314 314 313 313 312 312 312 312 311 310 310 310 310 309 308 307 307 307 307 306 305
319 319 319 319 320 320 320 320 321 321 320 320 319 320 320 321 322 322 324 327 329 329 328 328 328 328 327 326 325 325 325 325 324 324 325 325 324 323 323 323 322 320 320 321 320 319 317 318 318 317 317 317 316 315 314 313 313 313 314 314 314 313 313 313 313 313 313 313 313 312 312 311 311 311 310 310 309 309 308 308 308 307 307 306 306 305 305
319 319 319 319 319 320 320 320 321 320 319 319 320 320 320 320 321 322 324 326 327 327 327 327 326 326 325 325 325 325 325 325 325 325 325 324 323 322 322 323 322 321 320 320 319 318 317 317 317 316 316 316 316 314 311 308 309 311 312 313 313 312 312 312 312 311 311 311 311 311 310 310 309 309 309 309 308 307 307 307 307 306 306 305 305 305 305
319 320 320 320 320 320 320 320 319 319 319 320 322 322 321 320 321 322 323 325 326 326 325 325 325 325 325 324 324 324 324 324 324 324 324 323 322 321 321 321 321 320 319 318 318 317 317 316 315 313 312 311 311 309 306 306 308 311 311 311 311 311 311 311 311 310 310 310 310 309 309 309 308 308 308 307 307 307 306 306 306 306 305 305 305 305 305
320 320 319 320 320 320 319 317 317 318 319 321 322 321 320 320 321 321 322 324 325 325 325 325 325 325 324 324 323 323 324 323 323 323 322 322 322 321 320 320 319 318 317 317 317 316 316 316 314 311 308 307 306 305 305 307 309 309 309 309 309 310 310 310 310 310 310 310 309 309 308 308 307 307 307 306 306 306 305 305 305 305 304 304 304 305 305
320 320 320 320 320 320 318 317 317 319 321 322 322 320 319 319 320 320 320 321 323 323 324 324 324 324 324 323 323 322 322 322 322 321 321 320 320 320 319 318 317 316 315 316 316 315 314 315 313 310 308 307 307 306 307 309 309 308 307 307 307 308 308 309 309 308 309 309 309 308 307 307 306 306 306 305 305 305 305 304 304 304 304 304 304 304 304
319 320 320 320 320 320 320 320 320 321 322 323 323 321 319 318 319 320 319 321 321 321 321 322 322 322 322 322 322 322 322 321 321 320 320 320 319 319 318 317 317 315 313 313 314 314 314 313 312 310 309 309 308 308 308 309 308 307 306 306 306 306 306 307 307 307 307 308 308 307 307 306 306 305 305 305 304 304 304 304 304 304 304 304 304 304 304
319 319 319 319 319 320 321 321 321 321 321 320 320 320 319 319 319 318 319 320 321 320 320 321 321 321 321 322 322 322 321 320 320 320 319 319 319 318 317 316 316 314 312 311 312 313 312 312 311 310 310 309 309 308 308 308 307 306 306 305 305 305 305 306 306 306 306 307 307 307 306 305 305 304 304 304 304 304 304 304 304 304 304 304 304 304 304
319 318 318 318 318 319 320 320 319 319 319 319 319 318 319 319 319 318 319 320 321 321 321 321 322 322 321 322 322 321 320 319 319 319 319 318 317 317 316 316 314 312 311 311 312 312 311 311 311 311 310 309 309 308 308 308 307 306 305 305 305 304 304 304 305 305 305 305 306 306 305 305 304 304 304 304 304 304 304 304 304 304 303 303 304 304 303
317 318 318 317 317 318 319 319 319 319 319 319 319 319 319 318 318 318 319 320 320 320 321 321 321 320 320 321 321 321 319 319 319 318 318 317 316 316 315 315 314 312 310 311 312 312 312 312 311 311 310 310 309 309 309 308 307 306 305 305 305 304 304 303 303 304 304 305 305 305 304 304 304 304 303 304 303 303 303 304 304 304 303 303 303 303 303
317 317 317 317 317 317 318 318 318 318 318 318 318 319 319 318 318 318 319 320 320 319 319 319 320 320 320 320 320 320 320 319 318 317 317 317 316 315 314 314 314 313 312 311 312 313 313 312 311 311 310 310 309 309 309 308 308 307 306 305 305 304 303 303 303 303 303 304 304 304 304 303 303 303 303 303 303 303 303 303 303 303 303 303 302 302 302
Wind_Speed
19 19 18 16 14 13 14 14 16 18 18 20 18 14 12 8 6 5 6 11 14 11 10 11 9 6 4 3 2 2 4 8 11 10 9 11 11 13 19 24 28 29 30 33 36 39 40 40 39 37 36 36 34 33 32 29 30 33 30 22 19 18 17 17 17 16 15 15 15 15 14 13 13 12 11 12 14 14 13 12 12 12 13 15 16 17 17
17 20 21 22 19 16 16 17 19 19 20 23 20 17 19 16 12 10 8 10 10 9 7 9 7 3 5 6 4 4 8 10 10 11 13 13 14 15 19 23 26 30 32 32 32 34 37 38 38 38 38 37 34 34 37 35 32 31 23 15 16 19 17 16 16 15 16 17 17 16 15 14 13 12 11 12 13 14 14 14 13 12 13 14 15 15 16
15 21 21 20 20 18 18 18 19 21 22 22 19 17 18 16 15 16 10 8 7 7 7 8 6 3 2 1 3 6 10 11 12 14 15 17 19 17 21 25 25 27 31 33 32 32 35 39 39 39 39 37 36 38 41 39 34 27 16 13 18 21 18 15 15 15 16 18 18 17 15 14 12 12 11 12 13 14 16 16 14 13 13 13 14 16 17
12 15 16 18 18 20 22 20 21 23 20 17 15 14 15 14 12 11 7 4 4 5 7 7 5 5 5 6 6 10 10 9 11 12 13 16 20 17 16 23 27 28 28 31 33 33 35 39 41 41 40 39 39 43 43 40 33 22 14 17 23 23 18 16 17 18 18 19 18 17 15 14 12 11 11 12 13 15 16 16 15 13 13 14 14 16 17
10 13 18 18 15 16 16 15 18 20 16 15 15 15 16 16 9 4 4 4 3 3 0 2 3 5 5 4 4 6 5 5 7 10 13 16 17 15 13 15 22 28 30 31 33 33 33 37 38 38 41 43 44 45 43 41 34 22 18 22 25 22 19 18 19 20 21 20 19 17 16 15 13 12 12 13 14 15 16 16 16 15 15 15 15 15 17
8 13 16 13 10 10 9 8 12 15 14 15 17 17 18 14 6 4 4 3 3 4 3 3 4 3 3 5 7 7 8 9 10 12 14 16 17 17 17 17 18 24 30 31 32 34 36 37 36 34 36 41 45 45 45 42 33 24 24 26 25 23 20 19 21 21 21 21 19 17 16 15 13 13 13 14 14 16 16 16 16 16 16 16 16 16 17
8 9 10 11 10 10 9 9 11 15 17 17 16 17 17 9 2 5 5 4 1 1 2 3 3 2 5 7 9 10 12 12 13 14 13 14 16 16 17 18 19 20 27 31 34 38 40 39 38 37 37 41 45 41 37 33 26 24 27 27 25 25 24 22 22 23 21 20 20 17 15 14 14 14 14 15 15 16 17 18 18 17 17 17 17 17 18
8 7 9 9 7 8 11 10 11 14 16 14 13 13 12 8 2 4 5 3 4 4 6 7 5 5 8 8 6 10 15 15 15 15 14 13 14 14 14 16 17 18 23 30 34 37 39 37 38 40 40 40 39 31 23 20 22 25 28 27 26 28 26 24 23 23 21 20 19 17 15 15 15 14 14 15 16 17 19 20 20 18 17 18 18 18 19
6 8 9 8 4 6 10 9 9 10 9 9 9 9 9 10 8 4 2 2 5 6 7 5 4 3 3 3 6 15 21 20 17 13 12 13 13 11 11 12 14 16 18 24 29 33 36 36 35 38 38 37 35 28 19 19 24 27 28 29 29 29 27 24 22 21 20 18 17 17 16 16 15 14 14 16 17 18 19 19 19 19 18 18 19 20 22
5 8 9 9 7 6 7 8 9 10 11 11 9 8 7 7 6 7 7 4 5 5 3 1 3 4 2 3 7 12 15 10 12 9 10 11 11 9 8 9 11 13 15 19 23 26 32 35 33 31 32 32 28 22 19 22 27 31 31 31 30 28 26 23 20 19 18 17 16 16 16 16 15 14 14 15 16 17 17 17 18 19 19 19 20 22 24
6 8 8 7 8 6 5 7 10 13 14 12 10 9 7 3 3 8 10 7 4 4 2 2 5 5 4 5 4 7 12 7 5 7 8 8 7 5 5 7 10 12 15 17 19 23 30 34 29 24 26 27 20 14 18 25 28 30 31 29 26 23 21 19 18 18 18 16 16 17 17 17 16 15 14 13 13 15 17 18 18 20 21 22 22 24 24
8 9 8 6 6 4 2 4 8 12 13 9 8 9 4 2 5 8 8 8 6 4 4 5 6 5 4 6 7 8 10 12 11 7 4 3 5 3 4 7 9 12 15 17 19 24 29 31 28 25 27 24 16 13 19 26 27 27 28 26 23 19 17 16 16 17 17 17 17 18 18 17 17 16 15 15 16 17 16 16 18 19 21 24 27 27 26
10 10 10 8 6 2 4 7 8 10 13 10 6 6 2 5 5 2 1 3 3 7 6 6 5 5 5 7 11 12 10 14 15 8 5 4 5 4 6 9 11 12 14 17 20 23 24 24 25 27 25 19 16 19 24 26 24 22 21 20 18 17 16 15 15 16 17 17 18 18 18 18 17 17 17 19 19 17 16 17 18 20 22 25 27 26 25
9 9 9 8 5 0 4 8 9 6 6 6 2 2 2 4 4 5 2 2 3 4 4 3 3 6 6 7 12 13 13 15 14 8 7 8 7 7 10 13 13 13 13 16 18 21 21 21 23 22 16 15 18 23 25 23 20 18 15 14 13 13 15 15 15 17 18 18 18 18 18 17 18 17 16 16 16 16 17 18 19 20 22 24 25 24 24
7 9 8 7 5 3 3 7 6 7 3 3 1 3 2 2 4 5 0 2 1 3 3 4 7 10 12 13 14 17 20 15 7 4 6 7 5 5 7 10 11 11 12 14 15 16 17 21 23 19 16 18 21 20 18 16 15 14 13 13 12 13 13 13 16 19 20 20 20 20 19 20 20 17 14 14 14 15 17 20 21 21 22 23 23 24 24
5 6 4 2 3 1 6 6 4 5 6 5 2 4 4 5 8 8 6 4 4 6 7 8 10 12 14 15 14 18 22 14 4 6 6 6 5 3 4 8 9 10 13 17 15 11 11 15 16 15 17 19 17 14 13 13 12 12 12 12 13 13 12 13 17 19 20 22 23 22 20 21 19 15 13 14 14 14 17 20 21 22 22 22 22 22 22
3 1 3 3 5 5 9 10 6 5 7 6 5 6 6 6 9 8 8 9 8 7 8 10 11 12 14 15 14 16 23 19 9 9 8 9 8 6 5 9 10 9 13 19 18 11 10 13 14 14 18 19 15 12 12 12 12 12 12 12 14 15 16 17 18 18 20 22 21 20 20 20 17 14 12 13 13 14 17 19 20 21 22 21 20 20 20
0 2 3 5 6 8 10 8 6 8 9 8 9 10 9 8 7 4 5 8 8 8 9 11 12 13 14 16 15 17 23 21 9 7 4 5 9 12 9 10 14 14 15 19 18 13 12 13 10 9 11 11 8 6 7 10 11 14 16 17 17 17 20 22 21 21 23 21 18 18 18 17 14 12 10 11 13 14 15 16 17 18 18 18 17 18 19
2 2 1 2 1 5 8 8 8 12 12 11 11 10 9 7 5 4 5 6 7 9 10 11 13 14 16 17 16 15 15 11 3 9 6 2 5 10 11 13 14 14 15 18 17 15 14 12 8 5 3 1 4 6 9 12 14 15 16 17 17 16 19 24 23 20 18 16 15 15 11 7 8 8 10 12 13 12 12 14 15 16 16 17 17 17 18
1 1 3 6 7 8 9 8 10 10 9 10 11 9 8 7 7 7 8 8 8 10 13 13 13 14 15 12 8 7 6 1 8 13 11 7 4 6 10 14 14 15 19 21 19 15 13 12 10 7 6 8 9 9 11 11 11 11 11 10 9 8 13 17 17 14 11 10 12 11 6 6 9 10 9 10 11 12 15 17 18 18 18 19 19 17 18
2 3 7 5 5 10 11 11 12 10 7 7 9 7 6 7 8 9 10 10 10 12 13 12 11 11 9 7 6 2 1 5 11 13 13 10 8 9 12 14 15 18 21 20 16 12 11 10 10 9 7 7 5 5 7 6 4 5 6 5 5 7 8 9 10 11 11 9 8 8 8 9 11 11 9 10 13 16 18 19 19 19 20 20 18 16 16
2 2 10 9 3 6 7 8 9 7 6 5 6 6 7 8 10 11 11 11 11 12 12 10 9 9 7 6 2 2 5 6 8 11 12 11 10 10 12 13 13 15 16 15 14 13 9 6 6 5 5 6 4 2 3 3 1 2 4 5 6 7 8 9 11 11 10 8 7 8 8 8 9 12 13 14 15 17 17 18 18 18 19 18 15 13 13
3 4 9 10 6 5 5 6 7 6 4 4 4 5 7 9 10 10 11 11 12 11 9 7 7 8 6 5 4 5 5 6 9 14 15 13 12 12 11 11 12 15 15 12 10 8 6 5 5 5 3 2 2 2 2 4 3 3 5 7 8 8 7 9 10 10 9 9 9 9 8 8 10 13 15 15 14 15 15 16 16 16 16 14 11 9 11
8 9 9 8 7 5 4 5 5 4 3 3 3 5 8 10 11 12 12 11 10 10 8 6 7 8 5 5 5 5 5 8 13 17 16 15 16 14 9 5 4 4 4 4 6 7 7 7 6 7 6 4 2 1 1 3 3 4 6 7 8 8 8 11 13 11 10 11 10 9 8 8 9 11 13 14 14 13 14 16 16 15 13 10 7 7 9
8 8 8 6 8 10 10 9 9 7 4 4 4 6 10 11 12 13 13 12 11 12 11 8 8 8 6 5 5 5 7 11 15 17 18 19 19 15 10 10 11 10 7 7 8 9 9 7 6 5 4 3 4 4 3 3 4 5 6 7 8 8 9 11 12 11 11 12 12 10 9 9 9 9 10 10 12 12 14 15 15 11 8 6 6 6 6
8 7 6 4 6 8 10 10 9 8 9 9 8 9 12 14 14 14 15 14 14 16 15 12 10 10 7 5 5 7 8 11 13 16 18 18 17 15 14 15 15 13 11 11 11 10 8 8 6 4 3 4 5 6 3 4 6 6 6 7 7 8 9 9 9 10 10 11 10 10 9 8 8 9 8 9 10 12 13 12 11 8 5 4 6 7 7
11 10 9 6 4 5 6 8 10 12 14 14 13 13 13 15 15 15 16 16 17 18 18 14 11 11 11 9 10 11 11 11 13 15 17 17 15 14 15 16 15 14 14 14 13 11 11 9 6 4 5 8 6 7 5 6 8 8 7 7 7 7 8 10 10 10 9 9 10 11 10 8 7 7 8 9 10 10 10 9 9 8 6 5 6 7 7
7 7 6 6 5 7 8 10 11 13 14 14 14 13 13 14 15 16 17 17 17 18 19 17 13 14 16 15 13 12 12 12 14 15 17 18 17 16 17 20 18 15 15 15 14 12 10 8 5 6 9 9 7 6 5 5 8 7 6 6 6 6 8 10 9 8 8 10 12 13 12 10 10 11 11 10 9 8 7 6 6 6 5 5 6 7 8
2 4 5 5 6 8 9 10 10 10 10 11 11 12 12 13 14 15 15 15 16 17 18 19 16 14 15 16 15 15 14 15 16 17 17 18 17 15 17 21 20 15 15 16 13 11 10 9 9 10 10 8 6 4 4 4 5 4 4 5 6 7 9 11 11 10 10 12 13 13 12 12 12 11 9 6 5 4 4 4 3 3 3 3 5 7 8
5 5 6 7 9 9 10 10 10 10 10 10 11 13 14 14 14 14 14 15 15 15 16 17 18 16 14 14 14 16 16 16 19 20 18 17 17 16 16 19 19 16 16 15 12 11 11 10 10 10 9 5 2 3 4 3 4 4 5 7 9 10 12 13 13 13 13 12 11 12 12 12 11 8 5 3 3 3 3 4 4 4 2 1 3 6 8
6 7 8 9 10 10 10 9 9 10 10 12 13 14 15 15 15 15 15 15 15 16 16 17 18 19 18 16 15 16 18 16 16 17 16 15 16 16 17 18 17 19 19 16 14 14 13 11 11 11 9 6 4 5 5 4 4 6 7 10 11 12 12 12 11 12 12 10 10 12 12 10 7 5 3 3 3 2 3 4 4 4 3 4 8 13 15
6 8 9 10 10 10 10 10 11 12 13 14 15 15 15 15 15 16 16 16 16 16 16 17 19 19 17 16 15 17 19 18 16 16 16 13 11 14 16 16 16 17 18 16 15 13 12 10 10 10 10 8 6 6 5 4 5 7 10 12 13 13 12 11 9 10 10 10 11 12 11 8 6 6 6 7 6 4 5 5 5 4 4 5 9 16 18
8 9 10 11 11 12 13 13 14 14 15 15 15 15 15 16 16 17 17 17 17 17 16 16 19 17 11 12 14 17 20 20 19 17 16 14 13 15 15 14 14 16 17 16 13 11 10 9 8 7 7 5 4 4 4 4 6 9 11 12 12 12 13 11 9 7 7 8 9 11 11 10 9 9 9 10 8 6 6 6 5 5 7 8 12 16 16
9 9 11 13 13 14 15 15 16 16 16 17 17 16 16 16 17 18 18 17 18 19 17 17 19 15 8 10 14 17 19 20 21 20 18 18 18 16 12 11 14 15 15 13 11 9 8 8 7 4 3 2 2 2 4 6 9 10 9 8 7 8 9 9 8 8 9 10 11 13 13 12 10 9 9 10 9 7 6 5 4 5 8 10 13 16 18
10 11 14 15 15 16 17 18 18 19 19 19 18 18 18 18 18 19 19 19 19 19 18 17 16 12 9 11 15 17 17 17 18 17 16 16 17 16 12 12 14 15 13 12 11 9 8 7 6 4 3 2 2 3 6 8 8 9 9 8 6 7 7 8 8 8 10 12 12 12 11 10 8 9 9 9 9 8 5 3 3 4 8 12 14 17 18
14 15 16 17 18 19 20 20 21 21 21 21 21 20 20 20 21 21 21 21 20 19 18 16 13 9 9 11 13 13 13 13 14 16 14 12 12 13 12 12 12 12 12 10 9 8 7 7 7 7 6 4 3 6 9 8 7 8 9 9 8 8 8 8 8 8 9 10 10 10 10 10 9 10 10 9 8 6 5 4 5 6 8 10 11 12 12
17 18 19 20 20 20 21 21 21 21 22 22 22 21 21 22 22 23 22 22 20 20 19 16 13 11 10 9 8 9 11 11 12 12 11 11 12 12 11 12 11 10 10 10 9 10 10 8 6 6 7 5 5 8 9 9 9 9 7 6 7 6 4 4 6 6 6 7 7 7 7 7 6 7 8 7 6 6 6 6 8 9 9 6 5 6 7
19 20 21 22 22 22 23 22 22 22 23 23 22 22 23 23 23 24 23 22 21 19 17 14 11 10 8 7 8 9 10 10 11 12 13 14 13 11 8 8 8 8 9 10 11 12 12 9 7 6 7 7 7 8 8 9 10 8 5 4 5 4 1 1 1 1 2 3 4 4 4 3 3 5 7 7 7 8 7 7 9 11 11 9 7 8 9
22 23 24 24 25 25 24 23 23 23 23 23 23 24 23 24 24 24 23 23 22 20 16 12 10 8 7 8 9 11 13 13 14 15 15 14 12 9 8 9 9 9 11 11 10 11 11 7 5 7 7 6 6 7 8 7 7 5 3 3 4 2 0 1 2 1 2 3 3 5 7 6 5 6 7 8 8 8 8 8 9 9 8 10 11 9 7
24 25 25 25 26 26 26 25 24 23 22 23 24 23 23 24 25 25 25 24 20 16 13 10 8 8 10 12 10 9 10 11 12 13 13 12 11 11 13 13 11 10 10 10 8 9 7 4 6 7 7 6 5 6 7 6 9 8 3 4 4 4 4 4 4 4 5 6 6 8 9 8 7 7 8 9 11 10 9 9 9 8 9 12 12 8 5
23 23 24 24 24 24 24 24 23 23 23 24 24 24 24 26 26 26 28 24 14 8 9 9 8 9 11 12 11 11 11 12 13 14 13 10 9 12 13 12 10 10 11 10 9 8 6 8 8 7 6 7 9 8 7 7 9 8 4 5 5 5 6 8 8 8 8 9 9 8 8 9 10 10 9 9 12 14 13 12 9 8 9 11 11 9 7
22 22 22 22 22 22 22 22 22 22 23 23 24 24 26 26 27 28 27 18 8 9 8 8 10 12 13 14 15 15 13 11 11 10 9 8 10 12 12 10 9 10 11 13 12 9 7 9 8 7 6 8 10 9 8 8 9 7 5 7 7 6 6 8 9 9 10 12 12 10 10 10 11 12 12 9 9 12 15 14 9 8 9 10 9 9 9
21 21 22 21 21 20 20 20 19 21 23 24 25 25 25 25 25 24 18 8 8 10 8 8 10 11 12 12 12 11 9 7 8 9 8 7 7 9 11 12 10 9 13 16 13 8 7 8 10 10 10 10 10 8 7 8 8 7 7 9 10 8 8 10 11 10 11 12 12 12 11 11 12 13 14 12 10 11 13 12 8 7 7 9 9 9 8
20 20 20 20 19 19 19 18 17 19 21 21 20 21 21 19 17 14 9 8 8 7 7 8 8 8 9 9 8 9 10 10 9 9 10 9 8 9 12 12 9 9 14 15 11 9 11 11 10 8 10 12 12 12 11 10 8 7 9 11 12 10 10 10 12 12 11 10 11 11 11 11 12 11 12 13 12 11 11 12 10 7 6 9 10 9 8
18 18 18 18 17 17 18 17 16 16 16 13 12 13 13 10 9 9 7 6 7 6 7 7 7 6 7 7 7 8 9 9 9 9 10 9 8 10 12 11 9 10 12 12 10 12 14 13 8 7 8 10 12 12 11 8 6 6 8 10 11 12 11 10 12 13 12 12 13 13 12 11 12 12 12 13 14 11 9 10 11 10 9 10 10 9 9
15 15 15 15 14 13 15 15 13 11 11 9 7 7 6 4 5 7 5 2 3 4 5 5 5 5 6 7 7 8 7 7 8 9 9 9 9 10 11 10 9 10 11 12 12 15 16 13 10 8 6 5 5 6 5 3 4 7 8 8 10 12 12 10 10 11 13 13 14 14 13 12 13 13 13 13 13 11 10 10 11 11 11 10 10 10 11
13 13 13 13 12 11 12 11 9 7 5 4 4 5 5 5 4 3 2 2 2 2 4 5 5 6 7 6 7 7 7 7 8 8 8 9 10 10 8 7 8 9 11 11 12 15 15 14 12 10 5 6 6 3 0 1 3 5 6 7 8 10 11 11 11 12 13 14 13 12 12 13 12 12 12 12 11 10 10 11 12 12 12 12 10 10 11
13 12 11 11 10 9 9 8 6 6 4 3 3 5 6 6 4 2 2 3 4 3 4 4 5 5 6 6 7 7 7 8 9 9 9 9 10 9 9 9 10 11 13 12 12 14 15 15 14 12 9 9 7 4 2 4 7 7 5 7 9 9 9 10 11 11 13 14 14 13 13 13 13 12 12 12 11 10 10 11 12 12 12 12 12 12 12
13 12 11 11 10 9 7 7 7 7 7 6 6 6 6 5 5 5 4 4 4 4 4 4 5 4 4 5 7 8 8 9 10 10 10 11 11 11 11 11 11 13 15 13 12 13 14 15 16 15 12 9 3 4 3 4 9 10 10 11 12 10 9 10 10 10 10 12 12 13 13 13 13 13 12 12 12 12 12 12 12 12 12 12 12 12 13
12 13 12 11 11 11 9 9 8 8 7 6 5 4 3 3 3 3 2 3 5 5 4 4 5 5 4 5 7 7 6 8 9 10 11 12 11 11 13 14 13 13 14 12 11 13 15 15 16 16 13 10 5 2 1 5 9 12 12 10 9 9 11 13 13 12 10 9 10 11 13 13 13 13 13 13 12 12 12 13 13 14 14 13 12 12 12
11 12 12 12 12 12 11 10 9 9 7 5 4 4 3 3 2 3 3 3 4 5 5 5 6 5 4 5 6 6 6 7 8 8 10 12 12 12 14 15 15 13 13 12 12 15 16 15 14 15 15 12 8 6 6 7 9 10 9 9 9 10 13 14 13 12 11 11 11 12 12 12 13 13 13 13 13 13 12 12 12 13 14 14 14 13 12
11 10 10 10 11 12 12 11 10 9 8 6 4 4 3 2 1 3 4 4 4 4 5 6 6 7 6 6 6 6 7 8 9 9 10 12 13 14 16 17 17 17 15 14 14 16 18 17 16 16 15 12 9 8 8 9 9 8 10 13 15 14 13 13 13 11 11 13 14 15 14 13 12 13 13 13 14 14 14 13 13 13 12 13 14 15 14
Wind_Direction
227 246 255 247 236 235 233 226 231 232 231 240 248 250 245 221 209 220 169 182 213 217 205 211 215 225 252 275 276 297 299 275 268 265 239 221 221 206 191 193 200 205 209 212 214 215 214 213 210 207 203 197 195 193 187 189 193 188 183 188 197 203 207 208 215 221 219 222 228 231 235 238 245 255 261 262 271 283 290 294 299 295 287 286 290 296 301
219 228 239 246 249 247 235 226 233 237 231 230 234 245 252 246 238 234 186 170 210 227 227 239 246 262 284 297 304 298 301 295 281 278 280 267 248 219 199 201 208 210 211 213 215 215 213 210 206 203 200 195 192 188 185 191 193 185 188 205 205 208 219 220 224 228 221 219 223 226 231 239 246 256 263 262 267 274 281 290 297 293 290 295 297 296 297
229 226 225 229 241 254 252 238 232 235 236 234 229 231 243 245 244 242 215 169 193 218 225 238 248 256 258 313 314 270 271 279 276 271 271 274 271 246 212 207 214 215 213 215 219 219 211 204 201 199 196 192 190 186 188 195 192 186 201 222 211 213 224 226 229 232 224 220 224 229 234 242 251 261 265 262 265 270 275 284 293 295 298 298 292 289 293
239 240 238 232 232 242 250 248 244 241 239 240 238 232 235 238 239 240 232 214 214 209 206 212 231 239 201 178 220 244 251 261 269 277 279 276 277 267 228 213 214 214 213 213 216 217 210 202 201 199 193 190 189 190 192 192 186 188 211 214 210 218 225 224 226 226 222 221 225 230 237 245 257 268 270 267 269 272 275 281 286 287 288 286 286 290 292
237 243 245 243 240 241 242 243 249 249 241 237 242 241 239 239 233 218 223 246 318 9 360 232 261 252 214 192 230 249 274 297 287 288 291 285 279 276 264 243 222 211 210 210 210 210 207 203 202 199 194 193 193 193 192 186 183 195 208 203 210 222 223 222 225 221 218 218 221 228 236 246 257 264 267 268 269 271 274 278 280 281 282 282 284 287 289
239 245 253 261 266 256 252 264 275 278 270 254 249 252 252 247 221 178 166 123 56 32 13 314 284 288 316 326 318 306 295 289 281 276 276 277 276 271 267 266 246 218 210 209 207 204 205 207 204 199 198 199 198 195 189 184 188 203 203 199 211 222 220 221 222 219 217 216 220 229 236 245 255 259 264 269 270 272 274 275 277 279 280 280 283 287 290
247 251 256 258 254 251 262 287 293 287 281 277 276 278 279 277 177 137 120 109 134 268 296 276 272 312 300 286 281 279 275 274 275 276 273 270 270 267 261 262 258 233 212 208 206 203 207 211 205 201 205 206 201 192 183 184 196 203 200 202 213 217 219 221 217 215 215 215 221 231 235 242 253 258 263 269 271 273 274 272 274 276 275 277 282 284 286
244 242 239 244 255 267 274 288 289 273 269 278 291 297 301 309 350 92 104 148 224 247 241 236 238 248 256 258 265 272 271 266 263 264 268 268 265 261 254 252 254 243 220 212 211 206 205 206 202 203 207 202 192 180 173 189 204 199 199 207 212 212 215 217 215 213 213 215 224 233 235 241 250 256 262 266 269 272 271 268 271 276 274 275 279 279 281
242 240 241 243 253 260 258 265 278 277 274 281 288 293 303 307 315 345 11 199 216 234 227 219 243 260 260 274 282 280 271 252 238 246 264 272 273 268 258 249 250 247 224 213 215 212 206 202 199 201 200 189 183 184 190 205 205 197 200 207 207 209 213 214 213 213 213 218 227 234 239 246 251 254 257 261 268 274 272 267 270 275 274 275 278 276 280
245 247 248 244 238 243 244 239 249 267 275 273 271 268 270 285 295 287 276 245 203 214 194 117 294 297 331 286 275 300 301 253 211 227 255 265 275 274 262 252 245 235 218 212 216 213 204 198 194 195 193 186 187 195 195 195 196 199 205 208 208 211 213 212 213 214 218 224 227 231 241 247 248 252 257 263 269 272 274 274 273 273 273 276 277 276 282
227 238 247 246 247 249 232 212 219 241 257 266 273 263 246 254 279 259 254 244 212 201 189 222 255 253 259 262 277 348 343 317 241 237 241 254 274 270 256 256 241 222 213 213 213 205 198 193 188 184 179 176 185 195 184 187 197 203 207 210 211 215 216 216 218 218 221 229 230 231 239 243 246 253 260 265 264 266 276 280 274 272 275 277 277 277 283
227 234 245 251 253 263 281 239 221 222 227 240 266 259 241 324 280 251 249 253 230 193 190 210 226 228 229 263 296 315 309 297 285 253 206 250 287 281 276 264 237 217 208 205 207 203 194 188 186 183 176 177 197 213 194 194 204 207 209 213 216 219 221 223 227 224 225 232 235 234 238 244 249 250 248 249 252 260 274 276 270 273 278 278 280 282 282
232 233 241 246 245 284 336 299 269 238 219 212 226 233 238 328 304 230 242 279 179 149 166 192 219 245 235 252 279 290 291 292 288 259 199 235 260 256 270 258 230 214 205 199 199 196 187 181 179 180 184 196 214 209 199 201 208 210 214 220 222 226 230 230 234 235 233 234 237 239 243 245 245 244 247 251 257 266 272 269 271 279 282 283 286 287 285
241 236 239 246 242 293 325 297 303 308 257 226 215 201 223 327 11 88 141 245 140 143 197 218 264 288 289 283 294 313 321 310 298 268 225 233 246 250 251 239 219 205 192 181 177 175 177 182 179 177 188 208 207 201 203 209 212 213 219 225 231 241 243 241 244 243 238 235 237 241 244 240 238 246 254 257 262 271 273 270 276 288 291 289 287 286 289
249 242 237 245 236 217 285 296 323 6 10 218 221 55 61 321 3 42 348 251 36 11 332 330 319 313 315 312 313 323 324 318 302 253 226 211 219 250 235 212 202 195 178 161 151 156 176 192 192 188 200 207 204 205 210 214 217 221 225 231 242 251 253 255 255 247 239 236 239 243 243 239 240 249 257 259 262 268 271 276 286 295 297 294 289 286 291
279 251 232 298 327 62 71 63 64 77 102 146 159 62 48 354 357 8 353 348 9 355 339 326 310 305 306 306 307 311 309 300 231 213 234 208 190 203 189 185 190 185 170 159 153 162 193 201 195 191 198 201 201 206 214 218 224 228 226 227 236 247 259 267 263 255 246 241 241 242 239 236 240 252 269 282 285 276 273 281 289 293 293 293 293 293 295
328 272 126 61 4 21 69 85 105 113 106 107 85 74 72 38 24 6 336 342 354 342 328 317 305 298 296 299 304 304 301 293 254 222 249 258 231 200 184 192 186 169 160 160 160 163 179 187 192 199 205 210 213 220 229 232 236 244 252 250 246 248 259 268 268 257 242 233 233 235 232 232 245 265 282 293 293 282 278 283 289 293 293 292 292 294 298
313 339 75 78 37 24 41 59 72 70 71 73 65 64 68 57 42 4 323 336 336 326 323 314 304 302 302 301 301 300 301 301 278 197 201 252 214 186 185 196 182 163 154 158 162 164 164 169 178 185 191 200 211 233 258 265 268 273 274 272 269 268 268 269 265 250 237 233 236 237 238 244 258 271 278 280 283 284 284 289 293 295 297 295 292 295 301
182 258 222 173 109 43 37 40 57 62 59 58 53 48 48 45 28 355 340 330 316 312 308 295 290 294 296 295 293 294 302 305 221 156 134 114 184 180 194 205 188 166 159 166 176 184 178 170 164 143 133 254 297 309 308 302 296 291 284 282 287 281 261 252 249 243 239 242 239 235 241 267 276 272 271 274 280 285 283 285 289 290 292 294 295 301 307
219 233 261 233 183 116 77 62 65 60 50 49 45 36 32 28 16 7 355 337 320 309 301 299 303 301 298 302 308 305 304 254 159 152 138 119 123 155 181 194 189 175 173 176 180 189 198 208 222 236 261 277 283 296 307 306 298 294 297 302 298 263 235 236 237 230 222 222 224 226 238 267 271 272 269 261 264 273 276 281 287 291 294 295 296 300 303
306 349 351 323 153 104 66 60 67 53 34 40 38 29 29 22 13 9 358 344 334 322 318 328 334 325 329 2 28 36 147 135 138 143 141 135 132 145 164 179 184 180 176 174 174 184 205 225 231 228 236 253 280 331 337 324 298 279 284 285 251 220 221 232 228 214 207 211 225 240 253 264 273 279 276 267 272 279 283 287 292 295 297 297 297 298 296
299 350 12 9 85 99 53 49 61 44 24 35 29 25 33 24 12 9 0 353 348 338 336 346 342 328 324 327 329 160 172 172 157 158 161 154 147 149 152 155 159 160 160 161 161 163 167 181 195 201 229 252 264 335 324 294 256 221 231 225 223 228 233 233 229 224 224 233 239 246 260 275 282 281 279 279 281 283 285 287 290 295 299 300 298 295 293
111 65 36 26 52 90 63 36 37 32 27 24 7 14 23 12 5 5 359 355 351 342 340 345 334 325 308 269 217 147 167 203 175 159 158 153 145 141 138 136 136 136 138 147 158 162 165 173 171 152 142 172 162 140 266 275 267 252 240 222 218 228 236 238 243 244 242 245 250 257 264 267 268 272 278 281 282 286 290 292 294 299 304 304 303 301 300
88 65 50 26 7 1 357 1 1 355 4 4 339 351 360 356 353 350 344 343 340 326 317 315 313 315 307 265 222 172 172 190 178 171 172 167 159 153 150 171 202 178 168 215 239 233 217 195 170 151 142 145 151 149 275 293 287 278 272 250 229 228 235 243 252 254 245 242 250 259 263 257 255 263 272 279 286 292 295 297 301 307 310 310 311 307 302
68 62 54 21 340 324 319 321 315 310 343 24 4 339 340 338 334 330 324 323 320 309 298 292 289 285 277 269 263 226 181 180 191 197 193 185 183 187 204 234 248 250 242 226 215 207 197 191 201 199 175 197 257 259 255 270 266 259 265 260 245 239 246 253 260 261 250 245 248 255 259 257 252 254 263 277 288 292 294 299 305 313 321 328 327 323 315
27 29 18 346 308 301 304 308 310 325 355 5 346 327 324 321 318 318 315 309 304 297 288 279 272 262 242 231 263 256 216 198 208 212 205 203 213 221 219 219 225 223 205 187 186 186 177 178 209 231 174 180 247 270 262 251 261 267 271 267 255 248 252 257 260 259 254 252 252 254 257 256 251 252 258 265 272 279 289 299 304 310 325 335 334 336 336
358 355 346 333 315 316 330 337 338 339 338 332 324 321 318 314 309 307 302 295 290 289 289 282 265 253 248 242 244 245 238 228 224 220 218 222 228 222 206 199 199 197 188 182 183 184 184 190 215 225 175 184 238 282 282 268 282 295 292 275 258 254 263 267 263 259 254 247 241 238 238 237 241 250 254 254 260 272 281 285 288 295 302 310 323 330 328
342 344 356 5 360 354 347 336 327 322 318 316 318 318 314 310 305 300 296 292 287 287 291 290 271 249 248 248 235 222 217 216 217 225 232 231 228 223 207 192 184 178 180 185 188 189 197 204 190 178 191 216 259 286 282 283 298 308 300 274 259 258 265 264 256 245 238 237 239 237 232 233 244 256 260 258 259 269 271 262 261 271 276 290 313 317 310
11 29 33 19 352 334 323 314 313 315 313 314 318 320 318 316 312 307 303 301 296 289 291 298 294 269 250 245 233 219 214 215 217 223 225 221 225 227 206 186 178 173 176 186 192 190 190 184 170 182 214 250 275 263 242 259 273 275 270 262 254 246 247 249 245 234 223 225 235 239 243 251 258 261 262 260 251 248 247 236 226 238 278 315 325 314 305
43 26 3 341 331 324 316 315 319 319 317 319 323 323 322 321 318 317 317 316 312 305 299 303 305 295 273 254 234 219 219 227 229 226 221 223 232 227 196 174 171 172 175 183 185 177 178 182 180 194 221 246 243 229 234 238 245 251 251 246 243 243 245 250 254 247 235 230 238 246 255 266 267 257 248 248 239 227 226 213 181 158 154 238 258 259 275
8 354 335 327 326 320 314 318 322 319 319 323 321 316 316 317 316 316 315 311 308 307 304 302 302 293 279 265 248 230 222 224 224 221 223 235 237 217 191 177 176 175 176 179 176 172 181 187 183 194 218 228 211 217 226 225 232 239 239 241 249 255 253 251 252 248 239 234 244 253 260 265 260 235 209 219 223 206 198 191 177 172 193 242 257 261 270
352 339 330 328 327 321 319 325 325 319 316 316 312 311 313 313 311 309 307 305 305 305 302 301 303 297 278 262 255 240 225 217 215 219 229 236 222 200 197 198 191 181 179 178 173 175 186 189 189 210 236 243 229 225 233 241 243 241 243 249 255 255 250 245 243 239 230 224 234 248 253 244 219 196 197 208 210 200 194 194 204 230 247 267 277 277 280
349 338 335 334 330 325 322 319 315 312 310 309 308 307 307 307 306 306 307 307 307 305 301 304 310 306 274 237 234 231 221 216 217 223 227 216 192 186 197 202 191 180 177 175 172 176 181 182 194 225 247 245 230 222 215 221 232 240 252 260 256 246 243 243 237 232 233 230 230 234 231 218 208 209 212 210 205 204 208 213 233 278 293 286 279 282 293
350 338 330 325 319 315 312 310 309 309 306 304 303 303 304 306 307 307 306 305 303 303 302 305 308 304 269 233 239 241 235 230 226 222 218 208 197 196 202 200 186 178 174 170 167 166 172 184 200 220 235 229 219 204 212 230 236 238 246 257 248 228 232 243 240 231 234 235 232 230 227 221 219 227 228 218 210 209 213 221 252 305 310 293 285 296 309
338 325 319 315 311 308 307 305 304 303 301 300 300 300 301 303 302 301 300 298 295 293 292 293 295 292 273 262 260 253 245 238 225 210 199 193 194 195 191 182 177 173 167 165 163 162 172 191 197 189 187 189 183 210 236 244 242 232 227 226 215 208 223 243 244 229 229 234 234 231 228 222 223 235 240 228 214 207 205 216 254 280 282 280 288 303 310
328 321 316 312 308 305 303 299 297 296 294 293 293 292 292 294 294 294 294 291 287 284 282 282 285 278 264 262 257 241 226 209 190 180 174 177 188 191 180 167 167 166 158 152 154 166 184 201 201 194 190 181 193 234 244 240 235 235 232 231 237 242 244 243 233 218 219 230 232 228 226 228 234 240 236 222 210 214 231 247 252 257 267 278 292 304 307
321 316 311 307 305 303 301 299 297 295 291 289 287 287 288 289 289 288 288 285 282 278 275 273 271 264 256 251 236 222 215 202 188 186 190 193 194 192 178 165 161 159 152 152 170 194 211 229 233 212 196 196 226 248 246 232 228 240 248 244 241 243 236 227 224 218 218 226 231 233 236 242 247 242 230 220 228 246 256 259 255 247 242 251 283 293 283
310 306 303 301 299 298 297 297 297 294 292 290 289 287 287 288 287 286 284 280 277 275 271 263 256 256 255 240 211 197 194 190 182 176 174 174 177 182 185 179 172 169 169 174 192 211 225 240 241 216 205 213 232 249 250 235 226 233 244 229 213 206 186 180 201 211 217 218 221 230 232 232 236 233 228 232 244 245 239 243 254 254 246 240 252 267 269
300 299 298 297 294 293 292 292 292 291 290 289 288 287 287 288 287 285 282 277 272 267 260 249 241 238 223 199 183 173 171 173 171 168 170 177 180 185 194 195 191 192 191 189 204 230 243 239 215 205 206 208 221 246 256 232 195 183 218 231 199 184 233 172 160 180 222 206 203 220 225 223 228 235 237 240 241 233 224 228 241 253 251 241 239 249 264
299 296 294 293 291 290 289 288 289 289 290 291 292 293 295 294 292 289 285 280 271 256 236 223 218 208 192 180 172 171 176 180 178 174 176 177 173 176 187 190 193 203 205 198 213 244 246 198 186 207 207 191 201 244 255 207 165 159 198 238 210 206 228 222 213 227 232 225 231 240 238 236 242 247 250 251 243 232 235 248 250 250 252 246 239 236 244
297 293 291 291 291 290 291 293 293 292 292 293 294 297 300 298 295 292 286 278 261 220 200 197 189 184 185 181 178 177 174 168 167 172 177 181 188 195 198 200 213 231 229 214 217 224 189 159 177 211 207 189 201 224 236 214 188 179 197 228 228 233 239 232 231 235 234 236 246 249 247 252 253 244 244 254 246 238 250 272 271 250 248 253 248 240 238
296 294 292 293 294 294 294 295 294 292 292 292 294 297 298 294 292 292 288 274 218 161 166 175 165 162 169 173 175 175 171 166 173 187 202 226 232 222 210 208 224 233 218 203 203 201 175 168 186 198 190 199 218 229 240 236 221 205 215 239 246 248 238 228 231 237 235 235 236 235 236 246 244 231 233 250 245 234 249 268 264 231 233 246 243 237 238
296 294 292 291 292 292 293 294 293 293 295 294 293 294 295 295 295 295 287 252 158 140 154 166 162 163 167 167 170 177 182 186 196 201 201 206 213 209 204 205 209 204 199 201 204 197 186 199 211 207 204 218 232 243 251 244 228 220 239 251 252 248 237 231 236 244 243 239 238 239 242 249 248 240 243 253 250 240 248 254 235 205 222 237 231 228 233
298 297 295 293 291 289 290 292 295 299 301 298 294 293 294 297 301 296 264 201 156 140 155 166 165 169 172 167 171 185 192 192 192 190 186 185 188 196 204 210 210 202 202 206 201 189 196 217 231 229 229 238 249 259 264 259 246 249 264 265 263 263 256 244 243 250 252 252 255 256 255 256 257 254 252 254 255 253 249 239 226 222 235 235 227 225 225
301 298 297 297 296 293 290 288 292 301 305 302 303 306 301 294 301 304 273 209 170 157 166 168 164 171 177 176 180 189 194 194 193 189 184 179 178 186 197 207 211 204 197 191 184 192 207 221 233 234 236 246 256 261 262 257 253 264 273 272 268 267 263 256 254 252 248 248 254 256 254 253 255 255 252 250 252 254 245 234 235 240 238 229 224 223 219
313 308 303 299 297 299 298 291 287 295 302 299 307 330 335 316 314 321 313 242 164 160 170 173 175 181 183 182 182 182 182 187 196 196 191 189 194 203 209 212 208 194 184 182 192 208 217 224 229 234 248 273 278 264 253 257 275 281 282 281 278 270 264 264 267 260 249 245 248 250 249 249 250 250 248 247 247 247 242 236 233 230 225 222 223 224 223
334 330 322 310 301 302 304 294 278 278 296 301 302 315 320 319 324 330 302 261 250 199 174 175 186 187 185 186 188 184 180 185 194 195 193 199 209 214 211 202 191 181 178 188 208 221 227 230 231 237 274 331 343 347 19 304 301 295 285 284 289 286 277 273 272 264 254 250 247 244 246 250 250 246 244 242 241 237 232 228 226 225 224 223 222 221 219
347 344 338 332 323 315 311 306 296 293 305 319 318 305 300 304 317 312 261 260 261 228 194 195 200 192 188 196 200 195 195 201 200 190 189 199 204 197 191 194 198 194 192 202 219 227 227 229 232 243 276 317 347 43 66 295 290 291 291 289 293 293 285 275 270 264 256 251 247 244 244 245 245 243 240 237 236 234 229 224 225 225 223 224 225 222 219
4 2 355 354 355 350 343 341 337 328 322 323 319 304 286 281 289 286 266 248 240 228 212 203 197 188 192 210 219 221 221 217 206 192 189 192 190 185 192 208 215 206 201 210 227 232 230 233 240 250 270 296 335 93 86 308 286 277 277 283 285 281 270 262 261 261 255 246 242 242 243 240 238 238 236 233 233 235 231 227 228 227 224 223 225 224 224
12 16 12 12 17 19 17 14 8 359 352 348 343 329 309 293 287 279 247 219 222 230 229 215 209 210 218 230 239 246 238 218 209 205 202 198 192 191 203 216 222 214 206 212 231 243 245 246 249 254 267 282 282 242 290 300 285 277 278 277 270 267 269 269 268 269 267 252 240 240 242 239 236 237 236 234 234 235 231 228 231 232 229 224 223 225 229
12 14 15 19 25 28 25 21 19 17 12 11 20 19 2 329 277 249 241 232 232 243 253 249 241 239 241 237 243 250 241 222 218 222 217 206 199 201 211 222 231 230 218 212 224 241 249 252 255 260 267 272 270 264 272 277 276 281 287 279 267 272 281 279 273 271 269 257 242 238 240 240 237 236 235 233 232 233 232 230 231 233 232 228 224 224 226
7 6 3 5 18 28 26 19 19 25 25 19 18 20 9 355 312 264 262 262 262 272 274 261 246 245 250 244 236 239 237 225 220 223 221 213 210 216 225 233 238 237 228 220 224 239 251 258 263 266 267 264 256 255 263 267 267 275 284 281 274 272 272 266 259 259 259 250 240 237 239 240 239 237 237 236 235 235 236 234 231 232 234 234 230 226 225